STARLINK-1134, 45048

Orbit data source: Space-Track

STARLINK-1134, 45048 is a payload satellite owned by SpaceX/Seattle (US) in LEO that was launched on Wed, 29 Jan 2020 UTC via an FALCON 9 launch vehicle from the Air Force Eastern Test Range (AFETR). Payload-class satellites include a variety of spacecraft equipped with specific instruments for various scientific and technological missions. These include communications satellites like Starlink; space stations such as the ISS; scientific satellites like the Hubble; Earth observation satellites from companies like Planet Labs, Umbra, and HawkEye 360; GPS; miniature CubeSats for education and research; and military/defense satellites.

Loading next visibility...
Identifier
45048, 2020-006E
Orbit
LEO
Country
Flag of USUS
Related business
Manufacturer
SpaceX/Seattle
Mission
Partially operational Commercial Communications
Bus & Motor
STARLINK, Unknown motor
Mass
260 kg wet, ~248 kg dry
Launch date (UTC)
2020-01-29 (7 years ago)
Launch vehicle
FALCON 9
Launch site
Air Force Eastern Test Range (AFETR)
Object type
Payload
Rocket body
Debris
Shape & HBR
Box + 1 Pan, 10.1 m
Radar Cross Section
13.562 m², Large (>1 m²)

Expand to show TLE details & history
Last TLE update: 14 hours ago

TLE from 14 hours ago
0 STARLINK-1134
1 45048U 20006E   26263.59561632  .00046839  00000-0  39072-3 0  9999
2 45048  53.0194  11.4471 0005051  69.3400 290.8157 15.69605269367520
Epoch: 2026-09-20T14:17Z
TLE epoch observation values (Epoch: 2026-09-20T14:17:41.250Z)
Latitude
-0.00002°
Longitude
157.53768°
Altitude
359.718 km
Speed
7.695 km/s
True Right ascension
00h 45m 47s
True Declination
0° 00' 00"
Sunlit
Object was in full shadow at epoch
Visualization orbit readout
Latitude
Unknown
Longitude
Unknown
Altitude
Unknown
Speed
Unknown
Apparent Right ascension
Unknown
Apparent Declination
Unknown
Sunlit
N/A
Visualization observer readout
Local Sidereal Time
20:50:36
Azimuth
Unknown
Elevation
Unknown
Doppler factor
Unknown
Orbital elements
Apogee altitude
363.714 km
Perigee altitude
356.907 km
Semi-major axis
6,738.447 km
Eccentricity
0.00051
Inclination
53.0194°
RAAN
11.4471°
Arg. of periapsis
69.34°
True anomaly
290.76159°
Mean anomaly
290.8157°
Eccentric anomaly
290.78864°
Mean motion
3.92377 °/min
Orbital period
91.75 mins
BSTAR
0.00039072
Loading maneuver chart data...
Computing Atmospheric mass density...

Documentation

Showing up to 5 results
|